GW1418 Weather Reports


time (UTC)temp
F
wind
direction
speed
knots
gust
knots
rain 1hr
in
rain 24hr
in
rain mn
in
humidity
%
barometer
mb
20260506124419 53 357 3.5 4.3 0.00 0.00 0.00 81 1015.9
20260506123917 53 85 0.9 0.9 0.00 0.00 0.00 82 1015.9
20260506123414 53 133 0.0 0.0 0.00 0.00 0.00 82 1015.5
20260506122912 53 140 0.0 0.9 0.00 0.00 0.00 82 1015.2
20260506122408 53 142 0.0 0.0 0.00 0.00 0.00 82 1015.2
20260506121907 53 129 0.0 0.0 0.00 0.00 0.00 82 1015.2
20260506121403 53 122 2.6 4.3 0.00 0.00 0.00 82 1014.8
20260506120900 53 88 2.6 4.3 0.00 0.00 0.00 82 1014.8
20260506120358 53 15 1.7 4.3 0.00 0.00 0.00 82 1014.8
20260506115855 53 5 0.9 1.7 0.00 0.00 0.00 82 1014.8
20260506115353 53 124 2.6 4.3 0.00 0.00 0.00 81 1014.8
20260506114851 53 352 6.1 8.7 0.00 0.00 0.00 81 1015.2
20260506114348 53 104 3.5 5.2 0.00 0.00 0.00 82 1014.8
20260506113847 53 73 3.5 5.2 0.00 0.00 0.00 81 1014.8
20260506113344 53 134 0.9 1.7 0.00 0.00 0.00 81 1015.2
20260506112840 53 121 3.5 5.2 0.00 0.00 0.00 81 1014.8
20260506112338 53 323 2.6 4.3 0.00 0.00 0.00 81 1014.8
20260506111835 54 113 0.9 1.7 0.00 0.00 0.00 82 1014.8
20260506111333 54 343 6.1 7.0 0.00 0.00 0.00 83 1014.8
20260506110830 54 43 4.3 5.2 0.00 0.00 0.00 83 1014.8
20260506110327 54 112 3.5 5.2 0.00 0.00 0.00 82 1014.8
20260506105824 54 114 0.9 1.7 0.00 0.00 0.00 82 1014.5
20260506105320 54 56 3.5 5.2 0.00 0.00 0.00 81 1014.5
20260506104818 54 112 1.7 1.7 0.00 0.00 0.00 82 1014.1
20260506104316 54 327 6.1 7.8 0.00 0.00 0.00 82 1014.1
20260506103813 54 326 4.3 6.1 0.00 0.00 0.00 81 1014.1
20260506103311 55 112 2.6 2.6 0.00 0.00 0.00 81 1014.1
20260506102808 55 122 2.6 4.3 0.00 0.00 0.00 81 1013.7
20260506102306 55 62 1.7 1.7 0.00 0.00 0.00 81 1014.1
20260506101803 55 34 3.5 5.2 0.00 0.00 0.00 81 1013.7
20260506101258 55 86 3.5 7.8 0.00 0.00 0.00 82 1013.7
20260506100757 55 86 2.6 4.3 0.00 0.00 0.00 82 1013.4
20260506100255 55 115 1.7 1.7 0.00 0.00 0.00 83 1013.4
20260506095753 55 75 4.3 5.2 0.00 0.00 0.00 82 1013.4
20260506095250 56 133 0.0 0.0 0.00 0.00 0.00 83 1013.4
20260506094746 56 128 2.6 4.3 0.00 0.00 0.00 82 1013.1
20260506094245 56 114 0.0 0.9 0.00 0.00 0.00 82 1013.1
20260506093743 56 90 0.0 0.9 0.00 0.00 0.00 82 1013.1
20260506093240 56 135 0.0 0.0 0.00 0.00 0.00 83 1013.1
20260506092737 56 330 5.2 7.0 0.00 0.00 0.00 83 1012.7
20260506092235 56 107 3.5 5.2 0.00 0.00 0.00 84 1012.7
20260506091732 56 125 0.0 1.7 0.00 0.00 0.00 84 1012.7
20260506091230 56 128 0.9 0.9 0.00 0.00 0.00 85 1012.7
20260506090727 56 325 3.5 5.2 0.00 0.00 0.00 84 1012.7
20260506090224 56 101 2.6 2.6 0.00 0.00 0.00 85 1013.1
20260506085721 56 89 2.6 4.3 0.00 0.00 0.00 85 1013.1
20260506085217 56 109 2.6 2.6 0.00 0.00 0.00 85 1012.7
20260506084714 56 123 1.7 2.6 0.00 0.00 0.00 85 1013.1
20260506084210 56 114 1.7 1.7 0.00 0.00 0.00 85 1012.7
20260506083707 56 343 2.6 4.3 0.00 0.00 0.00 85 1012.7
20260506083205 56 122 1.7 1.7 0.00 0.00 0.00 85 1012.7
20260506082702 56 121 0.0 0.0 0.00 0.00 0.00 86 1012.7
20260506082203 56 108 0.0 0.0 0.00 0.00 0.00 86 1012.7
20260506081701 56 116 1.7 1.7 0.00 0.00 0.00 86 1012.7
20260506081158 55 114 0.0 0.9 0.00 0.00 0.00 86 1012.7
20260506080656 55 130 1.7 2.6 0.00 0.00 0.00 86 1013.1
20260506080152 55 130 0.9 0.9 0.00 0.00 0.00 86 1012.4
20260506073136 55 92 2.6 2.6 0.00 0.00 0.00 86 1012.7
20260506072633 56 119 0.9 1.7 0.00 0.00 0.00 86 1012.7
20260506072131 56 110 0.9 1.7 0.00 0.00 0.00 86 1012.7
20260506071628 56 148 0.9 0.9 0.00 0.00 0.00 86 1012.4
20260506071126 56 6 3.5 4.3 0.00 0.00 0.00 86 1012.4
20260506070622 56 105 1.7 1.7 0.00 0.00 0.00 86 1012.0
20260506070119 56 118 1.7 2.6 0.00 0.00 0.00 85 1012.4
20260506062057 57 113 0.9 1.7 0.00 0.00 0.00 85 1011.4
20260506061552 57 136 0.0 0.0 0.00 0.00 0.00 85 1011.7
20260506061050 57 133 0.0 0.0 0.00 0.00 0.00 84 1011.7
20260506060549 57 132 0.0 0.0 0.00 0.00 0.00 84 1011.7
20260506051017 59 132 0.9 1.7 0.00 0.00 0.00 81 1012.0
20260506050515 59 129 0.0 0.0 0.00 0.00 0.00 81 1012.4
20260506045005 60 131 0.0 0.0 0.00 0.00 0.00 80 1012.0
20260506044503 60 134 0.0 0.0 0.00 0.00 0.00 80 1012.0
20260506043959 60 110 0.0 0.0 0.00 0.00 0.00 79 1012.0
20260506043456 60 125 0.9 0.9 0.00 0.00 0.00 79 1012.4
20260506042954 61 350 0.9 4.3 0.00 0.00 0.00 78 1012.4
20260506042449 61 116 0.9 1.7 0.00 0.00 0.00 78 1012.0
20260506041946 61 137 0.0 0.0 0.00 0.00 0.00 78 1012.0
20260506041444 62 131 2.6 4.3 0.00 0.00 0.00 77 1012.0
20260506040941 62 130 0.0 0.9 0.00 0.00 0.00 78 1011.7
20260506040438 62 133 0.0 0.0 0.00 0.00 0.00 77 1012.0
20260506035934 63 117 0.0 0.0 0.00 0.00 0.00 77 1011.7
20260506035432 63 134 0.9 0.9 0.00 0.00 0.00 76 1011.7
20260506034928 63 130 0.9 1.7 0.00 0.00 0.00 76 1011.7
20260506034426 64 123 0.9 0.9 0.00 0.00 0.00 77 1011.7
20260506033923 64 138 0.0 0.0 0.00 0.00 0.00 76 1011.4
20260506033420 65 102 0.9 1.7 0.00 0.00 0.00 75 1011.4
20260506032917 65 116 0.9 1.7 0.00 0.00 0.00 75 1011.4
20260506032414 66 146 2.6 2.6 0.00 0.00 0.00 75 1011.4
20260506031910 66 15 2.6 4.3 0.00 0.00 0.00 75 1011.0
20260506031408 66 113 0.0 0.9 0.00 0.00 0.00 75 1011.0
20260506030905 66 141 0.0 0.0 0.00 0.00 0.00 74 1011.4
20260506030403 67 125 1.7 2.6 0.00 0.00 0.00 73 1011.0
20260506025900 67 121 0.0 0.9 0.00 0.00 0.00 73 1010.6
20260506025356 67 138 0.9 0.9 0.00 0.00 0.00 74 1010.6
20260506024854 67 80 0.9 1.7 0.00 0.00 0.00 74 1010.2
20260506024351 68 138 0.0 0.0 0.00 0.00 0.00 74 1010.2
20260506023846 68 133 0.0 0.0 0.00 0.00 0.00 74 1009.9
20260506023343 68 109 0.9 0.9 0.00 0.00 0.00 73 1010.2
20260506022840 68 129 0.9 0.9 0.00 0.00 0.00 72 1009.9
20260506022338 68 150 0.0 0.0 0.00 0.00 0.00 72 1009.6
20260506021836 68 131 0.0 0.0 0.00 0.00 0.00 70 1009.6
20260506021332 69 126 0.9 1.7 0.00 0.00 0.00 69 1009.6
20260506020829 69 130 0.0 0.0 0.00 0.00 0.00 68 1009.2
20260506020327 69 128 0.9 1.7 0.00 0.00 0.00 68 1008.9
20260506015824 69 115 0.9 0.9 0.00 0.00 0.00 67 1009.2
20260506015322 70 130 0.0 0.9 0.00 0.00 0.00 67 1008.9
20260506014818 70 50 0.9 1.7 0.00 0.00 0.00 66 1008.6
20260506014315 70 121 0.9 1.7 0.00 0.00 0.00 66 1008.6
20260506013812 70 126 0.9 1.7 0.00 0.00 0.00 67 1008.6
20260506013309 71 130 0.0 0.0 0.00 0.00 0.00 66 1008.2
20260506012806 71 55 2.6 4.3 0.00 0.00 0.00 66 1008.9
20260506012307 71 119 0.0 0.9 0.00 0.00 0.00 66 1008.2
20260506011800 71 127 0.9 1.7 0.00 0.00 0.00 66 1008.2
20260506011256 72 92 2.6 2.6 0.00 0.00 0.00 65 1007.9
20260506010754 72 123 0.9 0.9 0.00 0.00 0.00 65 1007.9
20260506010252 72 125 0.9 1.7 0.00 0.00 0.00 64 1007.9
20260506005749 73 130 0.9 1.7 0.00 0.00 0.00 63 1007.9
20260506005245 73 111 0.9 1.7 0.00 0.00 0.00 64 1007.9
20260506004741 73 126 0.9 0.9 0.00 0.00 0.00 63 1007.9
20260506004239 74 131 0.0 0.0 0.00 0.00 0.00 63 1007.1
20260506003735 74 137 0.0 0.0 0.00 0.00 0.00 63 1007.5
20260506003231 75 135 1.7 1.7 0.00 0.00 0.00 62 1007.5
20260506002727 75 124 0.9 0.9 0.00 0.00 0.00 62 1007.1
20260506002224 75 125 2.6 2.6 0.00 0.00 0.00 62 1007.1
20260506001719 76 55 4.3 5.2 0.00 0.00 0.00 61 1007.1
20260506001217 77 79 4.3 6.1 0.00 0.00 0.00 62 1007.9
20260506000714 78 86 1.7 2.6 0.00 0.00 0.00 61 1007.1
20260506000212 78 132 0.9 0.9 0.00 0.00 0.00 61 1006.8
20260505235709 78 298 1.7 4.3 0.00 0.00 0.00 62 1006.8
20260505235207 78 124 1.7 2.6 0.00 0.00 0.00 61 1006.8
20260505234703 79 348 5.2 6.1 0.00 0.00 0.00 60 1006.8
20260505234200 79 7 3.5 5.2 0.00 0.00 0.00 59 1007.1
20260505233657 79 103 2.6 2.6 0.00 0.00 0.00 58 1007.1
20260505233155 80 119 6.1 7.8 0.00 0.00 0.00 58 1007.1
20260505232652 80 130 2.6 4.3 0.00 0.00 0.00 58 1007.1
20260505232150 82 97 4.3 7.0 0.00 0.00 0.00 57 1006.8
20260505231646 82 121 2.6 4.3 0.00 0.00 0.00 55 1006.8
20260505231145 83 119 1.7 1.7 0.00 0.00 0.00 56 1006.8
20260505230642 84 14 2.6 5.2 0.00 0.00 0.00 56 1006.8
20260505230138 84 106 0.9 1.7 0.00 0.00 0.00 56 1006.1
20260505225635 85 35 4.3 7.0 0.00 0.00 0.00 54 1006.1
20260505225131 86 54 2.6 5.2 0.00 0.00 0.00 53 1006.1
20260505224628 89 350 4.3 6.1 0.00 0.00 0.00 52 1005.4
20260505224126 88 110 4.3 7.0 0.00 0.00 0.00 50 1005.4
20260505223623 92 124 4.3 6.1 0.00 0.00 0.00 44 1005.4
20260505223119 93 40 1.7 2.6 0.00 0.00 0.00 41 1005.7
20260505222615 93 137 0.0 0.0 0.00 0.00 0.00 43 1005.4
20260505222111 93 130 1.7 1.7 0.00 0.00 0.00 42 1005.4
20260505221609 93 107 2.6 2.6 0.00 0.00 0.00 40 1005.4
20260505221105 93 42 2.6 2.6 0.00 0.00 0.00 41 1005.4
20260505220603 94 141 1.7 2.6 0.00 0.00 0.00 40 1005.4
20260505220100 93 138 0.9 0.9 0.00 0.00 0.00 41 1005.7
20260505215558 92 150 1.7 1.7 0.00 0.00 0.00 42 1005.4
20260505215056 93 133 0.9 0.9 0.00 0.00 0.00 42 1005.4
20260505214554 91 137 1.7 2.6 0.00 0.00 0.00 44 1005.7
20260505214050 91 86 0.9 0.9 0.00 0.00 0.00 44 1005.4
20260505213548 92 20 1.7 2.6 0.00 0.00 0.00 43 1005.4
20260505213044 91 345 3.5 5.2 0.00 0.00 0.00 42 1005.4
20260505212540 92 31 4.3 6.1 0.00 0.00 0.00 42 1005.4
20260505212038 93 326 2.6 2.6 0.00 0.00 0.00 41 1005.1
20260505211535 92 39 2.6 4.3 0.00 0.00 0.00 43 1005.1
20260505211031 92 134 0.9 1.7 0.00 0.00 0.00 43 1005.7
20260505210528 92 176 1.7 1.7 0.00 0.00 0.00 40 1005.7
20260505210025 92 263 2.6 5.2 0.00 0.00 0.00 38 1005.7
20260505205524 93 136 0.0 0.9 0.00 0.00 0.00 39 1005.4
20260505205020 93 161 1.7 2.6 0.00 0.00 0.00 41 1005.7
20260505204518 93 272 3.5 7.0 0.00 0.00 0.00 39 1005.7
20260505204015 93 304 4.3 5.2 0.00 0.00 0.00 38 1005.7
20260505203512 94 135 0.0 0.0 0.00 0.00 0.00 39 1005.7
20260505203009 95 138 0.0 0.9 0.00 0.00 0.00 40 1005.7
20260505202505 93 187 2.6 2.6 0.00 0.00 0.00 38 1006.1
20260505202001 93 260 3.5 4.3 0.00 0.00 0.00 40 1006.1
20260505201458 92 298 6.1 7.8 0.00 0.00 0.00 41 1006.1
20260505200955 91 297 3.5 4.3 0.00 0.00 0.00 39 1006.1
20260505200453 92 266 6.1 7.8 0.00 0.00 0.00 41 1006.4
20260505195948 92 291 6.1 7.0 0.00 0.00 0.00 44 1006.4
20260505195446 91 143 0.0 0.9 0.00 0.00 0.00 44 1006.1
20260505194943 91 243 4.3 5.2 0.00 0.00 0.00 42 1006.1
20260505194441 92 281 4.3 6.1 0.00 0.00 0.00 44 1006.4
20260505193940 91 156 2.6 4.3 0.00 0.00 0.00 46 1006.8
20260505193438 91 264 4.3 6.1 0.00 0.00 0.00 47 1006.8
20260505192936 91 143 0.9 1.7 0.00 0.00 0.00 46 1006.8
20260505192434 91 163 3.5 4.3 0.00 0.00 0.00 47 1006.4
20260505191931 91 275 3.5 4.3 0.00 0.00 0.00 47 1006.8
20260505191430 91 316 3.5 5.2 0.00 0.00 0.00 46 1006.8
20260505190926 90 134 2.6 2.6 0.00 0.00 0.00 48 1006.8
20260505190421 90 135 3.5 6.1 0.00 0.00 0.00 48 1006.8
20260505185917 90 169 3.5 5.2 0.00 0.00 0.00 50 1006.8
20260505185415 90 262 4.3 5.2 0.00 0.00 0.00 46 1006.8
20260505184910 89 209 4.3 6.1 0.00 0.00 0.00 49 1006.8
20260505184407 89 149 2.6 5.2 0.00 0.00 0.00 52 1007.1
20260505183905 89 186 4.3 5.2 0.00 0.00 0.00 53 1006.8
20260505183401 89 335 2.6 6.1 0.00 0.00 0.00 52 1006.4
20260505182858 88 136 4.3 5.2 0.00 0.00 0.00 55 1007.1
20260505182355 87 207 4.3 6.1 0.00 0.00 0.00 54 1007.1
20260505181851 88 292 4.3 5.2 0.00 0.00 0.00 54 1007.1
20260505181349 88 218 5.2 7.0 0.00 0.00 0.00 55 1006.8
20260505180845 88 181 4.3 6.1 0.00 0.00 0.00 54 1007.1
20260505180342 88 178 4.3 7.0 0.00 0.00 0.00 54 1007.1
20260505175839 87 156 1.7 2.6 0.00 0.00 0.00 58 1007.1
20260505175335 86 226 6.1 9.6 0.00 0.00 0.00 57 1007.1
20260505174831 87 240 4.3 7.0 0.00 0.00 0.00 57 1007.1
20260505174329 87 260 4.3 7.0 0.00 0.00 0.00 57 1007.1
20260505173824 87 189 2.6 4.3 0.00 0.00 0.00 58 1007.1
20260505173321 86 211 2.6 2.6 0.00 0.00 0.00 60 1007.1
20260505172819 86 157 2.6 4.3 0.00 0.00 0.00 61 1007.1
20260505172316 85 203 4.3 6.1 0.00 0.00 0.00 62 1007.5
20260505171815 84 111 2.6 2.6 0.00 0.00 0.00 62 1007.1
20260505171313 84 210 6.1 8.7 0.00 0.00 0.00 62 1007.1
20260505170809 84 208 6.1 7.0 0.00 0.00 0.00 62 1007.5
20260505170306 84 240 6.1 7.8 0.00 0.00 0.00 62 1007.5
20260505165801 83 231 7.0 9.6 0.00 0.00 0.00 63 1007.5
20260505165257 83 176 3.5 5.2 0.00 0.00 0.00 66 1007.5
20260505164753 83 136 0.9 1.7 0.00 0.00 0.00 67 1007.1
20260505164250 82 197 2.6 4.3 0.00 0.00 0.00 68 1007.5
20260505163748 82 142 0.9 1.7 0.00 0.00 0.00 68 1007.1
20260505163247 82 193 4.3 5.2 0.00 0.00 0.00 68 1007.1
20260505162744 81 168 2.6 2.6 0.00 0.00 0.00 68 1007.5
20260505162241 81 237 6.1 8.7 0.00 0.00 0.00 68 1006.8
20260505161738 81 156 5.2 7.8 0.00 0.00 0.00 69 1006.8
20260505161236 80 163 6.1 11.3 0.00 0.00 0.00 70 1006.8
20260505160733 80 137 5.2 7.0 0.00 0.00 0.00 71 1006.8
20260505160231 80 206 5.2 7.0 0.00 0.00 0.00 70 1006.8
20260505153209 80 240 4.3 6.1 0.00 0.00 0.00 70 1006.8
20260505152706 80 231 6.1 8.7 0.00 0.00 0.00 71 1006.8
20260505152202 79 196 4.3 5.2 0.00 0.00 0.00 73 1007.1
20260505151657 79 196 4.3 5.2 0.00 0.00 0.00 73 1006.8
20260505151156 80 313 7.0 9.6 0.00 0.00 0.00 72 1006.8
20260505150651 79 118 6.1 8.7 0.00 0.00 0.00 72 1006.8
20260505150148 79 207 6.1 7.8 0.00 0.00 0.00 73 1006.8
20260505140617 74 218 6.1 7.8 0.00 0.00 0.00 80 1006.4
20260505140114 73 203 7.0 8.7 0.00 0.00 0.00 80 1006.8
20260505125030 70 168 3.5 5.2 0.00 0.00 0.00 84 1006.1